Location: Newark
(32.9167°N, 112.9667°W)
Time: 09:14:11
(UTC+00:00)

ISS - Visible Passes

Search period start: 19 October 2019 00:00
Search period end: 29 October 2019 00:00
Orbit: 411 x 421 km, 51.6° (Epoch: 19 October)

Date Brightness Start Highest point End Pass type
(mag) Time Alt. Az. Time Alt. Az. Time Alt. Az.
22 Oct -0.9 12:30:36 10° S 12:32:58 18° SE 12:35:21 10° E visible
24 Oct -3.4 12:29:57 18° SSW 12:32:19 65° SE 12:35:40 10° NE visible
25 Oct -1.8 11:44:23 29° ESE 11:44:23 29° ESE 11:46:50 10° ENE visible
26 Oct -3.1 12:31:31 34° NW 12:31:51 35° NW 12:34:59 10° NNE visible
27 Oct -1.3 11:45:30 18° NE 11:45:30 18° NE 11:46:33 10° NE visible
28 Oct -1.5 12:32:13 14° NNW 12:32:13 14° NNW 12:33:31 10° N visible
